Home   Weather   Salamanca   Past weeks
Flag for Spain

Past Weather in Salamanca, Spain — Yesterday and Last 2 Weeks

Now
43 °F

Quite cool.


Feels Like: 40 °F
Forecast: 76 / 43 °F
Wind: 5 mph from East

Location: Salamanca / Matacan

Current Time: May 25, 2019 at 7:32:12 am

Latest Report: May 25, 2019 at 7:00 am


Visibility: 4 mi

Pressure: 30.18 "Hg (27.36 "Hg at 802m altitude)

Humidity: 93%

Dew Point: 41 °F

Location of SalamancaLocation

Past Weather in Salamanca — Graph

°F

Salamanca Temperature Yesterday

Maximum temperature yesterday: 72 °F (at 5:00 pm)
Minimum temperature yesterday: 48 °F (at 7:00 am)
Average temperature yesterday: 60 °F

High & Low Weather Summary for the Past Weeks

 TemperatureHumidityPressure
High86 °F (May 15, 5:30 pm)100% (May 11, 5:30 am)30.33 "Hg (May 11, 5:30 am)
Low36 °F (May 18, 6:30 am)8% (May 12, 5:00 pm)29.74 "Hg (May 16, 6:00 pm)
Average59 °F51%30.04 "Hg
* Reported May 10 6:00 am — May 25 6:30 am, Salamanca. Weather by CustomWeather, © 2019

Note: Actual official high and low records may vary slightly from our data, if they occured in-between our weather recording intervals... More about our weather records

Advertising

Salamanca Weather History for the Previous 24 Hours

Scroll right to see more
 ConditionsComfort  
Time TempWeatherWind HumidityBarometerVisibility
6:30 am
Sat, May 25
45 °FQuite cool.6 mph87%30.15 "Hg4 mi
6:00 am45 °FQuite cool.5 mph87%30.18 "Hg4 mi
5:30 am45 °FQuite cool.6 mph87%30.15 "Hg4 mi
5:00 am46 °FCool.7 mph82%30.15 "Hg4 mi
4:30 am46 °FCool.8 mph82%30.15 "Hg5 mi
4:00 am46 °FCool.7 mph87%30.15 "Hg5 mi
3:30 am48 °FCool.9 mph82%30.18 "Hg5 mi
2:00 am50 °FCool.12 mph71%30.18 "Hg5 mi
1:30 am52 °FCool.12 mph67%30.18 "Hg5 mi
1:00 am52 °FCool.16 mph67%30.15 "Hg5 mi
12:30 am54 °FCool.13 mph58%30.15 "Hg5 mi
12:00 am55 °FRefreshingly cool.15 mph55%30.15 "Hg5 mi
11:00 pm
Fri, May 24
57 °FRefreshingly cool.16 mph48%30.12 "Hg5 mi
10:30 pm59 °FRefreshingly cool.17 mph48%30.09 "Hg5 mi
10:00 pm61 °FRefreshingly cool.16 mph45%30.09 "Hg5 mi
9:30 pm63 °FMild.13 mph42%30.07 "Hg5 mi
9:00 pm64 °FMild.15 mph37%30.07 "Hg5 mi
8:30 pm68 °FMild.13 mph33%30.04 "Hg6 mi
8:00 pm70 °FPassing clouds.10 mph29%30.04 "HgN/A
7:30 pm68 °FSunny.15 mph28%30.04 "Hg10 mi
7:00 pm72 °FPassing clouds.13 mph25%30.04 "HgN/A
6:30 pm70 °FPassing clouds.16 mph29%30.04 "HgN/A
6:00 pm72 °FPassing clouds.15 mph27%30.04 "HgN/A
5:30 pm70 °FPassing clouds.13 mph31%30.04 "HgN/A
5:00 pm72 °FPassing clouds.9 mph31%30.07 "HgN/A
4:30 pm70 °FPassing clouds.12 mph31%30.07 "HgN/A
4:00 pm70 °FPassing clouds.15 mph31%30.07 "HgN/A
3:30 pm68 °FPassing clouds.12 mph33%30.07 "HgN/A
3:00 pm68 °FPassing clouds.13 mph33%30.07 "HgN/A
2:30 pm68 °FPassing clouds.13 mph33%30.07 "HgN/A
2:00 pm66 °FPassing clouds.13 mph40%30.07 "HgN/A
1:30 pm64 °FPassing clouds.12 mph43%30.09 "HgN/A
1:00 pm64 °FPassing clouds.13 mph43%30.09 "HgN/A
12:30 pm63 °FPassing clouds.12 mph42%30.09 "HgN/A
12:00 pm63 °FPassing clouds.13 mph45%30.09 "HgN/A
11:30 am61 °FPassing clouds.14 mph52%30.09 "HgN/A
11:00 am59 °FPassing clouds.15 mph51%30.09 "HgN/A
10:30 am57 °FPassing clouds.16 mph59%30.09 "HgN/A
10:00 am55 °FPassing clouds.18 mph63%30.09 "HgN/A
9:30 am55 °FPassing clouds.12 mph67%30.09 "HgN/A
9:00 am54 °FPartly sunny.14 mph67%30.09 "HgN/A
8:30 am52 °FScattered clouds.10 mph72%30.09 "HgN/A
8:00 am50 °FSunny.12 mph82%30.07 "Hg10 mi
7:30 am48 °FSunny.7 mph87%30.07 "Hg10 mi
7:00 am48 °FSunny.6 mph87%30.07 "Hg10 mi
Weather by CustomWeather, © 2019

See weather overview